This demonstration page uses our WeatherBlox Daily Observations layout. Learn more.

38.88101, -77.10428

Hourly Observations for June 27, 2019

Temp ( °F °C ) Dew Point ( °F °C ) Humidity (%) Winds ( mph kmh ) Pressure ( in mb ) Visibility ( mi km ) Precip ( " mm )
12:52 am 00:52 Mostly Clear 81 27.2 64 17.8 57 57 W 8 13 30.1 1019 10 16.0934 0 0
1:52 am 01:52 Mostly Clear 77 25 65 18.3 66 66 SW 5 7 30.1 1019 10 16.0934 0 0
2:52 am 02:52 Clear 77 25 65 18.3 66 66 S 3 6 30.11 1020 10 16.0934 0 0
3:52 am 03:52 Clear 76 24.4 68 20 77 77 S 3 6 30.11 1020 10 16.0934 0 0
4:52 am 04:52 Mostly Clear 77 25 68 20 74 74 Calm 30.13 1020 10 16.0934 0 0
5:52 am 05:52 Mostly Sunny 77 25 65 18.3 66 66 N 6 9 30.14 1021 10 16.0934 0 0
6:52 am 06:52 Mostly Sunny 79 26.1 66 18.9 65 65 NNW 3 6 30.16 1021 10 16.0934 0 0
7:52 am 07:52 Mostly Sunny 81 27.2 67 19.4 62 62 NNW 6 9 30.17 1022 10 16.0934 0 0
8:52 am 08:52 Partly Cloudy 83 28.3 67 19.4 59 59 Calm 30.18 1022 10 16.0934 0 0
9:52 am 09:52 Partly Cloudy 85 29.4 68 20 57 57 Calm 30.18 1022 10 16.0934 0 0
10:52 am 10:52 Partly Cloudy 87 30.6 67 19.4 51 51 S 7 11 30.18 1022 10 16.0934 0 0
11:52 am 11:52 Partly Cloudy 89 31.7 67 19.4 48 48 SSE 7 11 30.17 1022 10 16.0934 0 0
12:52 pm 12:52 Partly Cloudy 90 32.2 67 19.4 47 47 S 10 17 30.17 1022 10 16.0934 0 0
1:52 pm 13:52 Partly Cloudy 90 32.2 68 20 48 48 S 9 15 30.15 1021 10 16.0934 0 0
2:52 pm 14:52 Partly Cloudy 90 32.2 70 21.1 52 52 S 8 13 30.14 1021 10 16.0934 0 0
3:52 pm 15:52 Partly Cloudy 91 32.8 71 21.7 52 52 S 12 19 30.11 1020 10 16.0934 0 0
4:52 pm 16:52 Partly Cloudy 92 33.3 68 20 46 46 SSW 9 15 30.11 1020 10 16.0934 0 0
5:52 pm 17:52 Mostly Cloudy 86 30 66 18.9 51 51 SSW 9 15 30.11 1020 10 16.0934 0 0
6:17 pm 18:17 Mostly Cloudy with Nearby Thunderstorms 83 28.3 67 19.4 59 59 WSW 15 24 30.13 1020 10 16.0934 0 0.0254
6:36 pm 18:36 Mostly Cloudy 81 27.2 64 17.8 57 57 W 17 28 30.15 1021 10 16.0934 0 0.0254
6:52 pm 18:52 Mostly Cloudy with Light Rain 80 26.7 63 17.2 56 56 W 15 24 30.15 1021 10 16.0934 0 0.0254
7:52 pm 19:52 Cloudy with Light Rain 78 25.6 67 19.4 69 69 W 7 11 30.15 1021 10 16.0934 0 0.0254
8:52 pm 20:52 Mostly Cloudy 78 25.6 66 18.9 67 67 W 5 7 30.13 1020 10 16.0934 0 0.0254
9:52 pm 21:52 Mostly Cloudy 78 25.6 64 17.8 62 62 Calm 30.15 1021 10 16.0934 0 0
10:52 pm 22:52 Mostly Cloudy 76 24.4 68 20 77 77 Calm 30.15 1021 10 16.0934 0 0
11:52 pm 23:52 Partly Cloudy 76 24.4 66 18.9 72 72 N 6 9 30.16 1021 10 16.0934 0 0

Powered by AerisWeather